Photometre #851[NE_1.6_Dp] Lerwick_MO AOT

File : 20210610_851.hum

10/06/2021,04:23:16,TEMP=13.6,BA=5.64,STAT.h
10/06/2021,04:23:17,TEMP=13.6,BA=5.64,STAT.h
10/06/2021,04:29:18,TEMP=13.6,BA=5.64,STAT.h
10/06/2021,04:29:19,TEMP=13.6,BA=5.64,STAT.h
10/06/2021,04:36:15,TEMP=13.6,BA=5.64,STAT.h
10/06/2021,04:36:21,TEMP=13.6,BA=5.64,STAT.h
10/06/2021,04:44:22,TEMP=13.6,BA=5.64,STAT.h
10/06/2021,04:44:23,TEMP=13.6,BA=5.64,STAT.h
10/06/2021,04:53:57,TEMP=13.6,BA=5.64,STAT.h
10/06/2021,04:53:58,TEMP=13.6,BA=5.64,STAT.h
10/06/2021,05:05:31,TEMP=13.6,BA=5.64,STAT.h
10/06/2021,05:05:32,TEMP=13.6,BA=5.64,STAT.h
10/06/2021,05:20:09,TEMP=12.3,BA=5.64,STAT.B,ExtBa=12.30
10/06/2021,05:26:50,TEMP=12.4,BA=5.64,STAT.A,ExtBa=12.20
10/06/2021,05:35:14,TEMP=12.7,BA=5.64,STAT.A,ExtBa=12.20
10/06/2021,05:48:10,TEMP=13.0,BA=5.64,STAT.A,ExtBa=12.20
10/06/2021,05:56:37,TEMP=13.5,BA=5.60,STAT.A,ExtBa=12.20
10/06/2021,06:05:10,TEMP=13.9,BA=5.64,STAT.C,ExtBa=12.20
10/06/2021,06:30:33,TEMP=15.6,BA=5.60,STAT.A,ExtBa=12.00
10/06/2021,06:40:30,TEMP=15.2,BA=5.64,STAT.A,ExtBa=12.10
10/06/2021,06:50:12,TEMP=15.4,BA=5.60,STAT.A,ExtBa=12.10
10/06/2021,07:03:19,TEMP=16.0,BA=5.64,STAT.A,ExtBa=12.10
10/06/2021,07:27:10,TEMP=17.1,BA=5.64,STAT.B,ExtBa=12.20
10/06/2021,08:16:42,TEMP=14.3,BA=5.64,STAT.B,ExtBa=12.20
10/06/2021,08:34:24,TEMP=14.6,BA=5.64,STAT.D,ExtBa=12.10
10/06/2021,08:49:24,TEMP=14.9,BA=5.60,STAT.D,ExtBa=12.10
10/06/2021,09:04:26,TEMP=15.7,BA=5.64,STAT.F,ExtBa=12.20
10/06/2021,09:29:49,TEMP=17.4,BA=5.60,STAT.D,ExtBa=12.00
10/06/2021,09:41:20,TEMP=16.2,BA=5.60,STAT.D,ExtBa=12.10
10/06/2021,09:52:51,TEMP=15.5,BA=5.60,STAT.D,ExtBa=12.10
10/06/2021,10:04:26,TEMP=15.2,BA=5.60,STAT.F,ExtBa=12.10
10/06/2021,10:19:25,TEMP=15.3,BA=5.56,STAT.D,ExtBa=12.20
10/06/2021,10:34:25,TEMP=16.3,BA=5.60,STAT.D,ExtBa=12.20
10/06/2021,10:49:25,TEMP=16.1,BA=5.60,STAT.D,ExtBa=12.20
10/06/2021,11:04:27,TEMP=16.1,BA=5.60,STAT.F,ExtBa=12.20
10/06/2021,11:20:29,TEMP=17.2,BA=5.60,STAT.D,ExtBa=12.00
10/06/2021,11:34:25,TEMP=16.2,BA=5.60,STAT.D,ExtBa=12.10
10/06/2021,11:51:11,TEMP=16.4,BA=5.60,STAT.D,ExtBa=12.10
10/06/2021,12:07:54,TEMP=16.4,BA=5.60,STAT.F,ExtBa=12.10
10/06/2021,12:19:25,TEMP=16.5,BA=5.64,STAT.D,ExtBa=12.10
10/06/2021,12:34:25,TEMP=16.9,BA=5.60,STAT.D,ExtBa=12.20
10/06/2021,12:49:25,TEMP=17.6,BA=5.60,STAT.D,ExtBa=12.20
10/06/2021,13:04:27,TEMP=16.4,BA=5.60,STAT.F,ExtBa=12.20
10/06/2021,13:19:25,TEMP=15.3,BA=5.64,STAT.D,ExtBa=12.20
10/06/2021,13:34:25,TEMP=14.6,BA=5.60,STAT.D,ExtBa=12.20
10/06/2021,13:49:25,TEMP=14.1,BA=5.60,STAT.D,ExtBa=12.20
10/06/2021,14:04:26,TEMP=14.1,BA=5.60,STAT.F,ExtBa=12.20
10/06/2021,14:19:25,TEMP=13.8,BA=5.64,STAT.D,ExtBa=12.20
10/06/2021,14:34:25,TEMP=13.6,BA=5.60,STAT.D,ExtBa=12.20
10/06/2021,14:51:31,TEMP=13.6,BA=5.60,STAT.D,ExtBa=12.20
10/06/2021,15:04:29,TEMP=13.6,BA=5.64,STAT.F,ExtBa=12.20
10/06/2021,15:19:24,TEMP=14.3,BA=5.64,STAT.D,ExtBa=12.20
10/06/2021,15:34:24,TEMP=14.9,BA=5.64,STAT.D,ExtBa=12.20
10/06/2021,15:52:10,TEMP=14.6,BA=5.64,STAT.B,ExtBa=12.20
10/06/2021,16:41:42,TEMP=15.5,BA=5.64,STAT.B,ExtBa=12.20
10/06/2021,17:05:33,TEMP=15.4,BA=5.64,STAT.A,ExtBa=12.20
10/06/2021,17:34:05,TEMP=14.1,BA=5.64,STAT.A,ExtBa=12.20
10/06/2021,17:51:37,TEMP=14.1,BA=5.60,STAT.A,ExtBa=12.20
10/06/2021,18:04:56,TEMP=14.2,BA=5.64,STAT.A,ExtBa=12.20
10/06/2021,18:18:12,TEMP=14.0,BA=5.64,STAT.C,ExtBa=12.20
10/06/2021,18:20:12,TEMP=14.5,BA=5.60,STAT.A,ExtBa=12.20
10/06/2021,18:33:36,TEMP=14.2,BA=5.64,STAT.A,ExtBa=12.20
10/06/2021,18:47:02,TEMP=14.2,BA=5.64,STAT.A,ExtBa=12.20
10/06/2021,19:00:33,TEMP=14.6,BA=5.64,STAT.A,ExtBa=12.20
10/06/2021,19:14:04,TEMP=13.6,BA=5.64,STAT.B,ExtBa=12.20
10/06/2021,19:16:07,TEMP=13.8,BA=5.64,STAT.A,ExtBa=12.20
10/06/2021,19:29:44,TEMP=12.8,BA=5.64,STAT.A,ExtBa=12.20
10/06/2021,19:43:25,TEMP=12.6,BA=5.64,STAT.A,ExtBa=12.20
10/06/2021,19:57:08,TEMP=12.3,BA=5.64,STAT.A,ExtBa=12.20
10/06/2021,20:10:54,TEMP=12.0,BA=5.64,STAT.A,ExtBa=12.20
10/06/2021,20:24:15,TEMP=12.4,BA=5.64,STAT.h
10/06/2021,20:24:22,TEMP=12.4,BA=5.64,STAT.h